Hovedside
METAR-TAF:

METAR-TAF

Lufthavner :

Seinäjoki-Ilmajoki, Finland

Seinäjoki lufthavn

breddegrad: 62-41-37N, lengdegrad: 022-49-55E, høyde over havet: 91 m

Gjeldene værobservasjon

Denne rapporten ble laget for 40 minutter siden, klokken 11:20 UTC
Vind 2 kt fra Vest
Temperatur 3°C
Luftfuktighet 93%
Trykk 1020 hPa
Sikt 10 km eller mer
Overskyet i en høyde av 4200 ft

METAR: EFSI 221120Z AUTO 27002KT 9999 OVC042 03/02 Q1020

Tid: 15:00 (12:00 UTC)


TAF: fraværende

Værobservasjoner og værvarsel for over 4000 flyplasser (METAR- og TAF-rapporter).

Tilgjengelige stasjoner er representert av de røde og gule prikkene på kartet.

Hold musepekeren over prikken for å se navnet på stasjonen.

Klikk så for å se værobservasjoner og -varsler.

For å forandre kartet kan du klikke på den grønne knappen med svart kryss for å zoome inn, på den grønne knappen med strek for å zoome ut, eller på de grønne pilene for å se tilstøtende kart.


METAR-TAF: